Find Starlink 6237

NORAD ID: 57055 Int'l Des: 2023-088 Owner: SPXS Country: US Constellation: starlink operational
LEOCIRCULAR

現在のビュー

3D地球を読み込み中...

About Starlink 6237

Starlink 6237 (NORAD 57055) is a starlink constellation satellite (v1.5) launched Jun 22, 2023 by SPXS of US. It operates in LEO, CIRCULAR orbit with a mass of 305.00 kg.

次回通過

Passes for default location (London). Set your location on the main map for personalized predictions.

高度履歴

Loading altitude history...

軌道要素

1 57055U 23088H 26235.74529136 -.00000079 00000-0 66350-5 0 9990
2 57055 43.0023 247.0308 0000892 350.0382 10.0452 15.27576296175881
Epoch: Aug 23, 2026 • Age: 17 hours

現在のステータス

高度 482.1 km
遠地点 / 近地点 N/A
速度 7.63 km/s
衛星直下点 21.82°N, 126.07°E
打ち上げ日 Jun 22, 2023
運用期間 3.1 years
タイプ internet

技術仕様

分類 Payload
質量 305.00 kg
乾燥質量 290.00 kg
総質量 305.00 kg
長さ 0.20 m
直径 2.80 m
スパン 9.00 m
形状 Box + pan
製造者 SPXS
バスタイプ Starlink
フェーズステータス In Orbit
所有者/国 SPXS/US

Most Searched